Regional Weather Roundup
Issued by NWS

Home | Current Version | Previous Version | Graphics & Text | Print | Product List | Glossary On
Versions: 1 2 3 4 5 6 7 8 9 10 11 12 13 14 15 16 17 18 19 20 21 22 23 24 25 26 27 28 29 30 31 32 33 34 35 36 37 38 39 40 41 42 43 44 45 46 47 48 49 50
000
ASUS44 KMEG 250610
RWRTN
TENNESSEE HOURLY STATE WEATHER ROUNDUP
NATIONAL WEATHER SERVICE MEMPHIS TN
100 AM CDT WED MAY 25 2016

TNZ002-004-019-021-049-052-054-088>092-250700-
WEST TENNESSEE

CITY           SKY/WX    TMP DP  RH WIND       PRES   REMARKS
MEMPHIS INTL   MOCLDY    68  64  87 E5        30.03F
NWS MEMPHIS      N/A     66 N/A N/A MISG        N/A
JACKSON        MOCLDY    67  65  93 S9        29.99F
DYERSBURG      CLOUDY    66  64  94 SW5       30.03S
UNION CITY     PTCLDY    68  66  94 S5        30.00R
PARIS          CLEAR     64  63  94 E5        30.01F
LEXINGTON      CLEAR     70  63  78 SE6       30.01F
$$

TNZ008-025-027-028-033-062-065-066-250700-
NORTH MIDDLE TENNESSEE

CITY           SKY/WX    TMP DP  RH WIND       PRES   REMARKS
NASHVILLE      MOCLDY    66  57  72 S5        30.09F
CLARKSVILLE    PTCLDY    69  61  75 SE6       30.04F
SMYRNA         CLEAR     66  59  78 S3        30.11S
COOKEVILLE     CLEAR     55  55 100 CALM      30.13S
CROSSVILLE     CLEAR     66  53  63 VRB3      30.18S
$$

TNZ061-075-076-078-094-096-097-250700-
SOUTH MIDDLE TENNESSEE

CITY           SKY/WX    TMP DP  RH WIND       PRES   REMARKS
FAYETTEVILLE   MOCLDY    68  55  64 S6        30.14F
TULLAHOMA      CLEAR     61  59  94 CALM      30.15F
MCMINNVILLE    CLEAR     61  59  94 CALM      30.14S
COLUMBIA       CLOUDY   N/A N/A N/A S5        30.07F
SHELBYVILLE    MOCLDY    64  57  77 SE3       30.13S
$$

TNZ017-018-042-046-047-250700-
NORTHEAST TENNESSEE

CITY           SKY/WX    TMP DP  RH WIND       PRES   REMARKS
TRI CITIES     CLEAR     53  50  89 CALM      30.20S
$$

TNZ012-013-036-069-073-074-250700-
CENTRAL EAST TENNESSEE

CITY           SKY/WX    TMP DP  RH WIND       PRES   REMARKS
KNOXVILLE      CLEAR     65  51  60 NE3       30.15S
OAK RIDGE      CLEAR     62  57  83 CALM      30.17R
GATLINBURG     CLEAR     57  50  77 CALM      30.16S
$$

TNZ083-085-099-250700-
SOUTHEAST TENNESSEE

CITY           SKY/WX    TMP DP  RH WIND       PRES   REMARKS
CHATTANOOGA    CLEAR     65  58  78 CALM      30.15R
$$

SKY/WX REPORTED AS FAIR MEANS FEW OR NO CLOUDS BELOW
12 THOUSAND FEET.





USA.gov is the U.S. government's official web portal to all federal, state and local government web resources and services.